Simultaneous Nadir Overpasses (SNOs) Predictions

Prediction of SNOs between GOES-16 and TERRA Satellite Orbit:

Table of predicted SNOs for the next 14.0 days since TLE Epoch: 7/21/2023
Index Date Time (GOES-16) GOES-16 Lat,Lon TERRA Lat,Lon Distance(km) Time Diff (sec)
1 07/23/2023 15:03:14 -0.01, -75.22 -0.14, -74.48 82.76 80
2 07/24/2023 03:20:53 0.01, -75.21 -0.86, -79.42 478.49 80
3 07/26/2023 03:04:27 0.01, -75.23 -0.03, -75.46 25.88 80
4 07/28/2023 02:50:41 0.02, -75.24 0.82, -71.49 426.88 80
5 07/28/2023 15:08:11 -0.02, -75.25 0.23, -76.39 129.15 80
6 07/30/2023 14:54:25 -0.02, -75.27 -0.64, -72.42 323.80 80
7 07/31/2023 03:12:02 0.02, -75.26 -0.39, -77.36 237.15 80
8 08/02/2023 02:58:16 0.02, -75.28 0.44, -73.38 216.63 80
9 08/02/2023 15:15:45 -0.03, -75.30 0.60, -78.28 339.12 80
10 08/04/2023 15:01:58 -0.02, -75.33 -0.25, -74.31 115.94 80
